sat.trackr.live / text

‹ back to catalog

STARLINK-6287

NORAD 56404 · 2023-061AG

PAYLOAD ACTIVE UNKNOWN

§ Identity

Operator
Country
US
Launch date
2023-05-04
Launch site
AFETR
Launch vehicle
Mass (kg)
RCS (m²)

Purposes: comms

External: N2YO · Heavens-Above · Gunter

§ Orbital elements

Epoch: 2026-09-20T03:48:05.839488Z

Period
94.27 min
Inclination
43.0016°
Eccentricity
0.0001222
Mean motion
15.27568656 rev/d
Perigee alt
482.2 km
Apogee alt
483.9 km
Semi-major
6,861.2 km
B*
3.8760e-5
RAAN
168.9827°
Arg perigee
264.3551°
Mean anomaly
95.7161°
Rev number
18,661

§ Raw data

STARLINK-62871 56404U 23061AG  26263.15840092  .00000804  00000+0  38760-4 0  99982 56404  43.0016 168.9827 0001222 264.3551  95.7161 15.27568656186611

JSON: /api/v1/satellites/56404 · /tle

For live sub-satellite position, see the globe view (requires WebGL).

§ Visibility from observer

Set your observer location to see the next 7 days of passes ≥ 10°. The values pass through the URL so the page stays shareable.

No JS? Fill the form by hand. The geolocation button needs JavaScript.